Temperature
25 25 25 25 28 29 30 33 34 33 31 30 31 31 30 28 27 24 24 23 22 22 22 21 20 20 19 19 19 19 19 18 18 18 18 18 18 18 18 18 18 18 18 18 18 18 18 18 19
25 24 25 27 28 29 31 33 33 31 30 30 31 31 30 28 26 24 23 22 22 22 21 21 20 20 19 19 19 19 18 18 18 18 18 18 18 18 18 18 18 18 18 18 18 18 18 19 19
24 24 26 29 28 29 31 33 33 32 31 31 31 31 29 27 26 24 23 22 21 20 21 21 20 20 19 19 19 18 18 18 18 18 18 18 18 18 18 18 18 18 18 18 18 18 18 18 19
23 25 27 29 29 31 32 33 33 32 32 32 31 30 28 27 25 23 22 22 21 20 20 20 20 20 19 19 19 18 18 18 18 18 18 18 17 17 17 17 17 17 18 18 18 18 18 18 18
24 27 28 29 31 33 33 33 33 32 32 32 31 29 27 26 24 23 22 22 21 20 21 21 20 20 19 19 18 18 18 18 18 18 18 17 17 17 17 17 17 17 17 17 17 18 18 18 18
26 28 28 29 31 33 34 33 32 30 30 30 30 29 27 25 24 23 23 22 22 21 21 21 21 20 19 19 18 18 18 18 18 18 18 17 17 17 17 17 17 17 17 17 17 17 18 18 18
26 28 29 30 31 33 34 33 32 30 30 30 30 29 27 25 24 24 23 23 22 21 21 21 21 20 20 19 18 18 18 18 18 17 17 17 17 17 17 17 17 17 17 17 17 17 18 18 18
27 29 29 30 31 32 34 33 31 30 30 31 31 30 27 25 25 24 24 23 23 22 21 21 21 20 20 19 19 18 18 18 17 17 17 17 17 17 17 17 17 17 17 17 17 17 18 18 18
27 28 28 30 32 33 34 33 31 31 30 31 31 30 28 26 25 25 24 24 23 22 21 20 20 19 19 19 19 18 18 18 18 17 17 17 17 17 17 17 17 17 17 17 17 17 18 18 18
28 28 29 32 33 33 33 33 32 31 31 31 30 29 27 26 26 25 25 24 23 23 22 21 20 19 18 18 19 18 18 18 17 17 17 17 17 17 16 17 17 17 17 17 17 17 17 17 17
29 29 31 32 33 33 33 33 32 32 31 31 29 28 27 26 26 26 25 25 24 23 23 22 20 20 19 19 19 18 18 18 17 17 17 17 17 17 17 17 17 17 17 17 17 17 17 17 17
30 30 31 32 32 32 32 33 32 32 31 30 29 27 26 26 26 26 26 25 24 23 23 22 21 21 20 19 19 18 18 18 18 17 17 17 17 17 17 17 17 17 17 17 17 17 17 17 17
30 30 31 31 31 31 32 32 32 32 31 30 28 26 26 27 26 26 26 25 24 23 23 23 21 21 20 20 19 19 19 18 18 18 17 17 17 17 17 17 17 17 17 17 17 17 17 17 17
31 31 31 31 31 31 32 32 32 32 32 30 29 27 26 27 27 27 26 25 25 23 23 22 21 20 20 20 19 19 19 18 18 18 17 17 17 17 17 17 17 17 17 17 17 17 17 16 16
30 30 31 31 31 31 32 31 32 32 32 31 30 29 28 28 27 27 26 25 25 23 23 22 21 20 20 19 19 19 18 18 18 17 17 17 17 17 17 16 16 16 16 16 16 16 16 15 16
30 29 29 30 31 31 31 30 33 33 33 32 31 31 30 29 28 28 26 25 24 23 22 22 20 20 20 19 19 18 18 18 17 17 17 17 17 16 16 16 16 16 16 15 15 15 15 15 15
28 28 28 29 31 32 31 30 32 33 33 32 32 31 31 30 29 28 27 25 24 23 22 21 20 19 19 18 18 18 18 18 17 17 17 17 16 16 16 16 16 15 15 14 14 14 14 14 14
27 28 29 29 31 32 31 31 32 32 32 32 32 31 31 30 29 28 26 25 24 22 21 21 20 19 18 18 18 18 18 17 17 17 17 16 16 16 15 15 15 15 14 14 14 14 14 13 13
28 29 29 31 32 32 31 31 32 32 32 31 31 31 31 30 30 28 26 24 23 21 21 20 19 18 18 17 18 18 17 17 17 17 16 16 16 15 15 14 14 14 14 13 13 13 12 12 11
28 28 29 30 32 31 31 31 31 32 32 31 31 31 31 30 29 28 26 23 22 20 20 19 18 18 17 17 17 17 17 17 16 16 16 15 15 15 14 14 13 13 12 12 11 11 11 10 10
28 28 28 29 30 31 30 29 30 31 31 31 31 31 30 30 28 26 25 22 21 20 19 18 18 17 17 17 16 16 16 16 15 15 15 14 14 14 13 13 13 12 11 10 10 9 9 9 9
27 29 28 28 28 28 29 28 29 30 30 31 31 31 30 30 28 25 23 21 20 19 18 18 17 17 16 16 16 16 16 15 14 14 13 13 13 12 12 12 11 11 10 9 9 8 8 8 8
28 29 29 28 27 27 28 27 28 30 30 31 31 31 30 30 28 25 22 20 19 18 18 17 17 16 16 15 15 15 14 14 13 13 12 12 12 11 11 10 9 9 8 8 8 7 7 7 7
28 28 28 28 27 25 27 26 27 29 30 31 32 31 30 29 28 24 21 19 18 17 17 16 16 15 15 14 14 13 13 13 12 12 12 11 11 10 10 9 8 7 7 7 6 6 6 6 6
28 26 25 25 25 25 27 27 28 30 31 31 31 31 29 27 25 22 19 18 17 16 16 16 15 15 14 13 13 13 12 12 12 11 11 11 10 10 9 8 8 7 6 6 6 6 5 5 5
27 26 24 24 25 27 28 28 29 31 31 30 30 29 27 25 22 19 17 16 16 15 15 15 14 14 13 12 12 12 12 11 11 11 10 10 9 9 8 7 7 6 6 6 5 5 5 5 5
27 27 27 26 25 25 26 28 29 30 30 30 30 29 27 24 21 19 16 16 15 15 14 14 13 13 12 12 11 11 11 11 11 10 10 9 9 8 7 7 6 6 5 5 5 5 5 5 5
28 27 27 25 24 24 25 26 27 28 29 29 29 28 26 23 20 17 16 15 14 14 13 13 12 12 11 11 10 10 10 10 10 9 8 8 8 7 7 6 6 5 5 5 5 5 5 5 5
27 27 26 26 26 24 24 26 28 28 28 27 27 26 25 22 19 17 15 14 13 12 12 11 11 10 10 10 9 9 9 8 8 7 7 7 6 6 6 6 6 5 5 5 5 5 5 5 5
28 27 26 25 24 25 24 25 28 27 27 25 25 24 23 20 18 16 14 13 12 12 11 10 9 9 9 9 9 8 8 7 7 7 7 6 6 6 6 6 5 5 5 5 5 5 5 4 4
Wind_Speed
8 11 10 8 8 10 17 14 3 7 12 11 9 9 17 17 11 11 10 18 23 20 19 19 18 17 16 16 16 15 16 16 15 15 14 13 12 11 10 10 10 11 11 11 11 10 9 8 6
10 11 9 7 10 14 15 9 6 15 12 3 7 11 16 15 15 14 13 18 22 19 18 18 18 16 16 15 15 15 15 15 14 14 13 12 11 10 10 9 10 10 10 10 9 9 7 6 4
11 13 8 9 15 17 14 3 13 15 12 7 10 12 13 10 13 11 15 18 19 17 18 20 18 17 15 15 14 14 13 13 13 12 12 11 10 9 8 9 9 9 9 9 8 7 6 5 3
7 8 7 11 18 18 11 1 11 12 8 9 10 12 12 10 11 16 18 17 18 18 19 19 18 16 15 14 13 12 12 12 11 11 10 9 9 8 8 8 8 8 8 8 7 7 6 5 3
10 8 12 16 18 14 5 4 7 8 7 8 13 16 12 14 19 19 17 17 17 18 19 19 18 17 15 14 12 11 11 10 10 9 9 8 8 7 7 8 8 8 8 8 7 7 6 4 2
9 9 13 16 17 11 6 7 8 7 5 6 12 17 13 17 17 17 17 15 16 19 19 19 18 17 15 14 12 11 11 10 9 9 8 8 8 7 7 8 7 7 7 7 7 6 5 3 1
12 12 16 18 14 8 7 8 9 10 8 6 10 15 12 16 17 17 17 16 17 19 18 17 17 16 15 14 13 12 11 10 10 9 8 8 8 8 8 8 8 8 7 7 6 5 4 3 2
13 12 18 18 14 9 9 10 10 10 9 9 8 9 14 18 18 17 16 15 17 18 18 16 17 16 15 14 14 13 12 11 10 10 9 9 9 8 9 9 9 8 7 6 6 5 5 5 5
16 14 17 18 12 5 9 11 11 10 10 9 6 10 20 23 20 18 15 15 15 16 17 17 17 16 17 16 15 14 13 12 12 11 10 10 9 10 9 9 10 8 8 7 7 8 8 8 9
14 15 20 16 6 2 8 11 12 10 10 9 9 17 21 22 20 19 17 16 16 16 16 17 17 15 16 16 15 14 13 13 13 12 12 11 8 9 10 11 11 10 9 9 10 10 10 11 10
19 21 20 16 8 4 5 6 8 11 12 11 11 15 19 18 19 19 18 16 16 15 13 18 16 12 14 12 13 11 11 12 13 13 11 8 8 9 10 10 9 10 10 10 11 11 11 10 4
20 21 20 16 8 6 9 9 9 12 10 8 11 10 12 18 19 19 19 18 17 15 13 15 16 10 9 11 9 8 8 7 6 9 6 7 3 2 4 6 9 9 9 9 7 8 8 2 3
20 20 19 15 12 10 12 14 14 13 10 12 18 17 20 20 18 17 17 18 18 15 12 13 14 9 7 6 5 6 6 7 8 9 4 3 2 1 2 2 3 4 1 2 2 3 4 3 4
19 19 20 18 16 15 15 15 17 16 12 13 19 21 22 21 20 17 16 17 18 16 13 13 14 11 8 6 2 4 6 6 8 7 7 3 3 4 2 2 2 3 6 8 6 6 4 3 3
19 19 18 18 18 17 17 18 19 19 15 12 14 19 23 22 20 19 17 14 17 16 14 13 14 13 10 9 6 5 6 7 6 7 8 4 5 5 2 1 2 4 5 4 4 5 5 3 4
18 19 19 19 19 20 20 20 18 18 17 13 13 15 16 17 20 20 19 14 15 17 15 14 15 15 11 9 7 5 6 7 7 8 8 6 5 4 2 2 5 5 5 4 3 3 4 5 6
18 19 20 21 23 23 23 20 19 16 14 12 12 13 13 15 17 16 19 18 16 15 15 13 13 16 13 10 6 6 6 6 7 8 8 7 6 5 4 4 5 5 3 4 4 6 5 5 6
17 19 21 23 22 25 24 20 16 11 10 12 13 13 12 13 14 15 19 20 17 16 15 13 12 14 12 10 7 6 7 5 6 7 8 9 7 7 6 4 6 5 3 5 5 4 4 3 4
21 22 20 18 20 22 23 21 18 14 13 14 14 14 14 13 11 12 16 19 17 15 15 13 13 13 10 9 9 8 7 6 6 6 9 9 9 8 6 5 4 3 4 4 4 3 5 4 4
22 23 22 18 15 14 14 16 15 15 15 14 14 14 13 10 8 10 16 16 16 15 15 13 12 12 10 8 6 5 7 6 6 6 7 9 9 6 6 5 3 4 2 1 1 1 3 5 4
19 19 19 18 17 17 16 17 17 17 20 20 17 17 17 12 8 11 17 17 17 16 15 13 12 11 9 8 7 7 6 6 4 6 5 5 8 8 7 5 5 3 3 2 2 2 3 3 5
16 15 16 17 17 17 18 19 18 19 23 24 23 22 20 17 12 12 16 16 15 14 12 11 11 10 8 8 8 10 7 7 6 6 6 5 6 6 6 5 4 3 3 3 3 6 4 4 5
14 14 15 16 16 18 19 19 19 18 21 20 20 22 21 17 14 14 16 16 15 13 12 11 11 10 9 7 7 7 6 6 6 7 7 6 5 5 5 6 4 2 1 4 3 3 4 4 4
12 13 14 14 14 18 19 21 22 19 21 19 18 15 13 12 10 15 17 17 15 14 12 12 11 9 8 7 6 5 7 8 8 7 6 4 5 5 5 6 4 0 2 3 2 2 4 2 3
14 12 10 12 14 18 20 20 20 20 19 15 9 3 3 4 11 18 19 16 15 14 13 12 11 9 7 7 6 7 8 7 7 5 5 2 3 5 6 5 3 1 1 2 2 3 3 3 3
16 17 14 13 14 14 12 12 10 7 3 2 3 3 4 9 13 17 17 15 13 13 13 12 12 10 9 8 8 7 6 5 5 3 2 2 3 7 6 4 2 0 2 3 2 4 5 4 3
17 16 17 16 18 18 15 18 16 9 6 8 8 7 5 9 14 17 16 14 13 13 13 12 12 11 9 9 8 6 5 6 7 4 1 4 4 4 4 2 1 1 2 3 3 4 5 5 5
19 16 11 14 15 16 17 16 13 10 8 5 3 2 4 10 15 17 15 14 13 13 12 11 11 10 9 8 6 7 6 6 4 3 5 6 4 4 2 1 1 2 3 4 5 6 6 6 6
15 17 15 14 14 15 15 10 4 8 8 7 5 4 3 11 15 17 15 14 14 14 13 12 11 10 8 6 6 7 5 4 3 3 5 4 2 1 2 2 3 4 5 6 6 7 8 8 8
16 17 16 13 15 15 15 13 8 9 11 12 12 11 7 12 16 17 16 16 15 14 13 11 10 8 7 6 6 5 4 3 2 4 4 3 1 1 3 4 5 6 7 6 6 7 8 7 7
Wind_Direction
239 258 259 276 260 253 261 266 252 80 65 55 58 60 65 56 64 98 120 107 109 116 123 122 119 118 115 114 116 118 117 118 117 116 115 112 109 106 102 98 97 97 99 100 100 99 98 97 94
254 256 264 257 262 261 264 259 96 88 90 113 80 72 76 73 85 109 116 110 115 122 132 129 127 125 123 121 119 120 121 120 119 117 116 114 111 108 106 105 104 104 106 107 107 106 105 103 99
257 261 265 253 249 260 279 300 111 115 144 146 91 71 65 88 101 115 120 121 120 124 127 131 135 133 130 127 124 124 123 122 121 119 116 113 110 108 108 108 109 109 110 111 111 110 107 103 95
240 231 238 248 253 249 251 234 115 125 136 110 102 85 79 81 108 123 132 129 125 129 130 138 139 138 134 131 129 127 125 123 122 119 116 113 110 108 108 110 110 109 109 108 108 107 102 95 81
234 245 236 252 254 255 214 167 132 128 134 122 107 98 92 94 110 127 136 135 138 134 132 141 141 141 139 137 135 134 131 128 125 123 121 118 114 111 110 112 112 110 109 108 109 108 105 99 86
224 234 242 247 252 239 183 154 130 127 128 126 116 112 110 116 126 140 141 146 141 132 132 139 143 145 145 145 144 142 139 136 133 131 129 126 123 119 116 115 113 112 112 114 115 117 117 116 104
242 250 256 262 270 227 173 159 154 151 157 171 137 117 126 136 142 147 148 151 141 132 133 145 148 151 152 152 151 148 144 141 140 140 141 142 141 137 132 125 121 121 121 123 128 133 142 155 195
243 265 272 272 262 230 171 166 161 162 166 177 164 132 140 142 150 149 153 149 141 138 142 149 152 154 157 158 156 152 149 149 151 154 160 164 164 158 149 142 135 137 140 144 151 162 180 198 219
238 252 264 267 253 216 176 170 165 180 167 189 154 126 140 145 153 151 155 150 146 143 148 154 153 159 163 159 156 156 158 163 165 172 181 184 188 173 165 152 151 158 164 168 177 192 204 214 226
229 242 251 270 297 196 205 186 176 185 174 193 129 113 132 149 157 159 161 159 153 153 160 153 152 162 164 154 155 167 173 175 188 183 186 198 194 173 158 159 167 177 182 184 201 211 220 225 226
230 243 264 289 299 317 272 222 199 203 199 189 140 132 145 159 165 167 167 166 159 161 166 151 154 164 157 146 167 173 175 171 196 179 179 178 179 163 160 165 176 193 194 200 206 217 227 228 227
237 248 261 280 301 304 288 278 241 229 217 169 121 135 175 175 178 176 171 169 161 165 170 153 147 160 150 151 164 159 156 170 166 140 174 163 177 174 162 176 185 200 198 197 198 225 220 215 326
237 249 262 271 279 277 273 275 269 252 211 155 145 164 200 191 187 183 175 167 164 165 168 149 145 137 112 113 151 159 142 154 135 142 160 130 163 143 111 64 45 330 50 129 314 329 28 19 323
246 243 251 260 263 262 264 266 263 258 230 177 163 172 203 193 191 185 180 170 166 162 163 145 143 130 119 124 158 125 126 119 131 130 128 108 69 82 59 77 59 354 26 36 358 351 4 345 334
256 259 255 250 253 256 259 257 253 249 237 205 186 186 193 193 191 184 182 175 164 157 155 144 146 142 147 159 176 145 136 141 123 110 110 99 82 89 48 104 106 37 15 23 354 356 335 317 326
245 245 252 251 247 247 249 254 254 241 234 217 210 208 195 194 195 185 175 166 159 158 153 154 160 154 160 165 177 153 148 134 122 124 117 107 91 83 32 53 66 22 358 17 20 359 352 360 352
245 237 241 245 238 235 236 245 258 257 226 221 228 228 213 203 199 184 171 164 159 155 153 159 156 156 164 160 155 123 111 117 122 119 115 107 94 81 60 76 60 6 8 32 16 38 13 353 345
234 235 236 241 241 231 230 234 245 251 226 232 237 235 228 219 200 181 172 165 158 154 153 156 151 154 157 151 142 132 125 117 107 104 105 105 95 72 47 90 70 24 25 44 38 13 354 323 300
251 259 258 251 241 240 229 231 240 242 221 231 243 244 235 225 209 173 162 155 153 152 154 157 157 154 154 156 159 151 145 131 116 107 104 96 88 79 61 61 77 55 48 44 20 16 333 311 309
243 257 268 275 275 268 251 235 238 254 256 237 236 247 254 234 192 153 142 149 152 154 156 156 153 154 159 157 151 143 133 123 111 106 103 106 102 94 98 73 51 59 35 291 30 358 312 309 329
240 248 259 268 277 277 274 259 247 255 266 263 244 237 246 248 202 161 153 156 157 158 161 159 153 153 156 143 130 122 109 114 118 123 115 110 112 101 80 77 57 38 339 51 7 337 329 326 323
244 246 257 266 269 268 266 266 252 246 248 248 246 238 233 239 214 177 159 154 153 151 147 141 138 139 135 133 144 150 155 156 154 142 128 122 113 112 106 91 76 44 347 27 356 44 350 330 307
245 252 251 253 256 263 266 269 267 262 260 250 248 239 226 231 217 181 161 149 139 136 134 131 128 127 131 143 157 165 152 137 125 119 129 138 128 125 120 108 84 46 12 57 19 1 341 322 332
242 249 257 261 262 257 254 257 263 258 260 258 255 240 213 221 200 156 141 134 132 129 126 127 127 128 135 142 147 147 129 125 127 132 143 162 152 153 133 120 101 37 47 49 344 332 295 320 349
223 234 239 239 237 248 248 246 254 255 257 263 273 265 173 133 131 130 133 134 133 133 131 132 130 129 127 124 118 115 116 120 127 135 146 180 156 137 112 102 102 48 56 276 270 291 291 290 289
220 225 237 253 261 268 275 265 270 284 278 316 355 25 89 115 123 130 132 133 136 137 137 137 134 130 124 116 111 108 119 132 122 85 105 132 59 94 119 119 137 224 294 307 347 313 292 278 263
239 230 235 252 269 279 282 291 298 289 253 219 223 228 191 145 134 131 134 136 141 142 141 140 135 127 121 116 109 104 91 87 98 98 39 87 72 113 112 117 162 247 288 298 300 279 284 280 265
228 246 250 249 261 271 278 282 293 325 322 301 233 231 136 127 129 130 134 138 138 136 130 126 125 123 118 116 122 116 97 96 110 120 81 73 75 65 70 263 260 267 266 262 263 273 272 271 266
217 227 242 259 263 267 272 275 340 15 9 10 2 5 117 131 132 134 136 132 127 125 126 126 124 122 122 119 106 104 108 118 133 115 112 104 88 82 266 274 284 280 270 261 256 262 271 273 275
239 241 233 239 250 261 271 280 324 25 31 24 12 17 62 118 129 131 131 129 129 131 133 131 128 123 116 110 104 106 107 103 95 96 86 94 94 314 309 308 297 289 287 284 282 285 295 303 308
Height
1518 1518 1516 1516 1511 1503 1492 1472 1464 1468 1475 1481 1483 1483 1487 1494 1501 1515 1517 1516 1516 1519 1522 1525 1528 1531 1533 1536 1538 1540 1542 1543 1545 1546 1548 1549 1550 1551 1553 1554 1555 1556 1557 1558 1559 1560 1561 1562 1563
1518 1519 1520 1516 1508 1505 1487 1467 1467 1474 1480 1486 1485 1486 1489 1499 1505 1511 1515 1518 1518 1520 1523 1526 1529 1531 1534 1536 1539 1541 1542 1544 1546 1547 1548 1550 1551 1552 1553 1554 1555 1556 1557 1558 1559 1560 1561 1561 1562
1517 1519 1519 1509 1505 1500 1485 1467 1468 1474 1480 1482 1485 1488 1494 1502 1508 1512 1516 1518 1519 1521 1524 1526 1529 1532 1534 1537 1539 1541 1543 1545 1547 1548 1549 1550 1552 1553 1554 1555 1556 1557 1557 1558 1559 1560 1560 1561 1562
1517 1518 1515 1505 1498 1481 1474 1469 1468 1474 1479 1482 1485 1491 1500 1505 1508 1512 1516 1519 1521 1522 1524 1527 1530 1532 1535 1537 1540 1542 1544 1546 1547 1549 1550 1551 1552 1553 1554 1555 1556 1557 1557 1558 1559 1560 1560 1561 1562
1517 1514 1508 1501 1487 1472 1467 1470 1471 1476 1480 1483 1486 1495 1503 1507 1509 1512 1516 1519 1522 1524 1525 1528 1530 1533 1535 1538 1540 1542 1544 1546 1548 1549 1550 1552 1553 1554 1555 1556 1556 1557 1558 1558 1559 1560 1560 1561 1561
1514 1507 1506 1499 1481 1468 1466 1470 1475 1480 1484 1486 1488 1495 1504 1508 1510 1514 1517 1520 1523 1524 1525 1528 1530 1533 1535 1538 1540 1543 1545 1546 1548 1549 1551 1552 1553 1554 1555 1556 1556 1557 1558 1558 1559 1559 1560 1560 1561
1511 1503 1499 1488 1479 1469 1467 1471 1475 1481 1486 1487 1488 1494 1503 1508 1511 1514 1517 1521 1524 1525 1526 1529 1531 1533 1536 1538 1540 1543 1545 1547 1548 1550 1551 1552 1554 1555 1555 1556 1557 1557 1558 1558 1559 1559 1560 1560 1560
1507 1502 1495 1485 1479 1470 1466 1470 1476 1480 1484 1485 1487 1490 1500 1506 1510 1514 1517 1521 1524 1525 1527 1529 1531 1534 1536 1538 1541 1543 1545 1547 1549 1550 1552 1553 1554 1555 1555 1556 1557 1557 1558 1558 1559 1559 1560 1560 1560
1505 1504 1497 1482 1473 1468 1465 1469 1476 1479 1483 1484 1485 1489 1496 1503 1508 1513 1517 1521 1524 1526 1528 1530 1532 1534 1536 1539 1541 1543 1545 1547 1549 1550 1552 1553 1553 1554 1555 1556 1557 1557 1557 1558 1558 1559 1559 1560 1560
1499 1498 1487 1472 1465 1466 1466 1467 1473 1478 1482 1484 1487 1492 1497 1502 1506 1511 1515 1519 1522 1526 1528 1530 1532 1535 1537 1539 1541 1543 1545 1547 1548 1550 1552 1553 1554 1555 1556 1557 1557 1557 1557 1557 1558 1558 1559 1559 1559
1492 1489 1479 1473 1468 1469 1468 1468 1470 1475 1479 1481 1487 1493 1498 1501 1505 1509 1513 1517 1520 1524 1528 1530 1532 1535 1538 1539 1541 1543 1545 1547 1549 1551 1553 1554 1555 1556 1556 1556 1557 1557 1557 1557 1558 1559 1559 1559 1561
1487 1483 1479 1474 1471 1472 1472 1470 1471 1473 1475 1479 1484 1493 1498 1501 1502 1505 1509 1514 1518 1522 1526 1529 1531 1535 1538 1539 1542 1544 1546 1547 1550 1551 1553 1554 1555 1556 1557 1557 1557 1557 1557 1557 1558 1559 1559 1560 1561
1483 1480 1478 1476 1474 1475 1474 1472 1471 1471 1472 1475 1482 1491 1497 1497 1500 1503 1506 1510 1514 1519 1524 1527 1529 1533 1536 1538 1541 1544 1545 1547 1549 1550 1551 1553 1555 1555 1556 1557 1557 1558 1558 1558 1558 1559 1558 1558 1559
1478 1477 1476 1475 1474 1474 1474 1472 1471 1470 1471 1473 1478 1483 1488 1491 1495 1499 1502 1506 1510 1515 1520 1524 1525 1528 1532 1535 1539 1542 1543 1545 1547 1548 1550 1551 1553 1553 1555 1555 1555 1556 1556 1556 1556 1556 1556 1556 1556
1477 1475 1473 1472 1472 1472 1473 1472 1468 1467 1468 1470 1474 1476 1481 1485 1489 1493 1498 1502 1505 1509 1515 1519 1521 1524 1528 1533 1536 1539 1541 1543 1544 1545 1547 1549 1550 1551 1552 1553 1553 1553 1554 1554 1554 1554 1553 1553 1553
1474 1477 1479 1472 1470 1470 1473 1474 1463 1462 1463 1466 1470 1472 1476 1480 1484 1488 1493 1498 1502 1506 1510 1514 1518 1520 1524 1529 1533 1535 1538 1539 1541 1542 1544 1545 1546 1548 1549 1550 1549 1550 1551 1551 1551 1551 1550 1550 1549
1476 1479 1478 1472 1464 1464 1465 1468 1460 1458 1459 1463 1467 1470 1472 1476 1480 1483 1486 1492 1498 1501 1505 1510 1514 1516 1520 1525 1529 1531 1533 1535 1536 1538 1539 1541 1542 1544 1545 1545 1546 1547 1547 1547 1547 1546 1545 1545 1544
1478 1474 1472 1468 1457 1455 1458 1459 1457 1457 1460 1462 1465 1467 1469 1472 1475 1479 1481 1486 1492 1497 1502 1506 1511 1513 1517 1521 1524 1526 1529 1531 1532 1533 1534 1536 1538 1539 1541 1541 1542 1543 1543 1543 1542 1542 1541 1540 1539
1467 1465 1462 1454 1447 1449 1452 1455 1454 1455 1458 1461 1463 1464 1466 1469 1472 1475 1479 1482 1488 1493 1497 1502 1506 1510 1514 1517 1519 1522 1524 1527 1528 1530 1530 1531 1533 1535 1537 1537 1538 1539 1539 1538 1538 1537 1536 1535 1534
1465 1467 1463 1454 1445 1446 1449 1451 1451 1454 1455 1457 1460 1462 1464 1466 1469 1472 1474 1480 1484 1488 1493 1499 1503 1507 1511 1514 1517 1519 1521 1523 1524 1525 1526 1527 1529 1531 1532 1533 1534 1534 1535 1534 1533 1532 1531 1531 1531
1461 1464 1463 1460 1452 1449 1453 1457 1453 1453 1454 1454 1455 1458 1461 1463 1466 1468 1470 1475 1479 1486 1490 1495 1500 1504 1509 1511 1514 1515 1517 1518 1520 1521 1522 1524 1525 1527 1528 1529 1529 1530 1531 1531 1530 1529 1528 1527 1527
1463 1457 1459 1460 1464 1464 1459 1469 1455 1449 1448 1448 1449 1451 1454 1459 1463 1465 1468 1472 1477 1482 1487 1492 1497 1501 1505 1508 1510 1512 1513 1515 1517 1518 1519 1520 1522 1523 1524 1525 1525 1526 1527 1527 1527 1525 1524 1524 1524
1456 1453 1455 1458 1463 1467 1462 1468 1458 1445 1444 1440 1439 1441 1445 1451 1456 1460 1464 1469 1474 1479 1484 1490 1494 1498 1502 1505 1508 1510 1512 1513 1514 1515 1517 1518 1520 1521 1522 1522 1522 1523 1523 1523 1523 1522 1521 1521 1520
1451 1455 1456 1458 1462 1475 1464 1467 1460 1444 1438 1433 1432 1433 1438 1445 1450 1455 1461 1466 1471 1476 1482 1487 1492 1496 1499 1503 1505 1508 1509 1511 1512 1514 1515 1517 1518 1519 1519 1520 1520 1521 1521 1521 1520 1519 1519 1518 1517
1452 1464 1477 1479 1477 1471 1452 1455 1448 1431 1427 1427 1429 1432 1437 1442 1446 1452 1458 1464 1469 1475 1480 1486 1490 1493 1497 1500 1502 1505 1507 1509 1511 1513 1515 1517 1518 1518 1517 1518 1518 1519 1519 1518 1518 1517 1516 1515 1515
1450 1458 1476 1482 1473 1456 1441 1444 1432 1422 1423 1426 1431 1435 1439 1444 1448 1453 1459 1464 1470 1475 1480 1484 1488 1492 1495 1498 1501 1504 1506 1509 1510 1512 1514 1515 1517 1516 1516 1516 1516 1517 1517 1516 1515 1514 1514 1513 1512
1448 1449 1449 1460 1463 1467 1455 1441 1428 1423 1424 1426 1430 1434 1439 1443 1448 1454 1459 1465 1471 1475 1479 1483 1487 1490 1493 1497 1500 1503 1505 1507 1509 1511 1512 1513 1514 1515 1515 1515 1515 1514 1514 1514 1513 1512 1511 1510 1509
1439 1442 1449 1458 1471 1475 1462 1451 1441 1429 1426 1425 1428 1433 1438 1443 1448 1455 1460 1466 1471 1475 1479 1483 1486 1489 1493 1497 1500 1503 1505 1507 1508 1510 1511 1511 1512 1513 1513 1514 1513 1513 1512 1511 1510 1509 1508 1507 1505
1437 1443 1446 1449 1451 1464 1467 1455 1430 1432 1432 1433 1434 1436 1440 1442 1448 1454 1462 1467 1472 1476 1480 1483 1487 1490 1494 1497 1500 1502 1504 1506 1508 1510 1511 1511 1512 1512 1513 1513 1512 1511 1510 1509 1507 1505 1504 1502 1500
1429 1433 1439 1455 1457 1453 1459 1454 1429 1431 1435 1439 1440 1441 1443 1445 1450 1456 1463 1468 1473 1477 1480 1484 1487 1491 1494 1497 1500 1502 1504 1506 1508 1510 1510 1511 1511 1511 1511 1511 1509 1508 1507 1506 1504 1502 1500 1498 1496